7 * 24
多渠道服务支持
JILIN-1 04 是吉林一号卫星星座中的第四颗卫星,由中国长光卫星技术有限公司研制,主要用于高分辨率遥感影像获取。该卫星具备高清晰度、广覆盖和快速响应能力,广泛应用于农业、林业、城市规划、灾害监测等领域。JILIN-1 04 于2015年10月7日成功发射,是吉林一号系列的重要组成部分,提升了我国商业遥感卫星的观测能力和数据服务能力。
数据来源 | 国际轨道数据 |
星历时间: | 2025-10-18T08:04:08+0800 5小时前 查看轨道信息 |
半长轴: | 6839.394km |
偏心率: | 0.0004246 |
轨道倾角: | 97.481° |
近地点辐角 | 359.759° |
升交点赤经 | 30.661° |
平近点角 | 0.365° |
近地点: | 458.354km |
远地点: | 464.164km |
周期: | 93.818分钟 |
每日圈数: | 15.34887 |